| time (UTC) | temp F | wind direction | speed knots | gust knots | rain 1hr in | rain 24hr in | rain mn in | humidity % | barometer mb |
| 20260505004455 | 72 | 22 | 5.2 | 8.7 | 0.00 | 0.55 | 0.55 | 53 | 1005.1 |
| 20260505003954 | 73 | 24 | 6.1 | 8.7 | 0.00 | 0.55 | 0.55 | 52 | 1005.1 |
| 20260505003455 | 73 | 29 | 6.1 | 7.8 | 0.00 | 0.55 | 0.55 | 53 | 1005.1 |
| 20260505002954 | 73 | 4 | 7.8 | 7.8 | 0.00 | 0.55 | 0.55 | 54 | 1005.1 |
| 20260505002454 | 73 | 36 | 6.1 | 7.8 | 0.00 | 0.55 | 0.55 | 54 | 1005.1 |
| 20260505001954 | 73 | 15 | 4.3 | 9.6 | 0.00 | 0.55 | 0.55 | 54 | 1005.1 |
| 20260505001006 | 74 | 34 | 7.0 | 12.2 | 0.00 | 0.55 | 0.55 | 50 | 1005.0 |
| 20260505000000 | 74 | 32 | 7.8 | 12.2 | 0.00 | 0.55 | 0.55 | 51 | 1005.2 |
| 20260504235500 | 74 | 20 | 7.0 | 14.8 | 0.00 | 0.55 | 0.55 | 50 | 1005.1 |
| 20260504235000 | 75 | 55 | 7.0 | 15.6 | 0.00 | 0.55 | 0.55 | 52 | 1005.3 |
| 20260504234500 | 75 | 41 | 6.1 | 15.6 | 0.00 | 0.55 | 0.55 | 51 | 1005.4 |
| 20260504234000 | 75 | 33 | 8.7 | 17.4 | 0.00 | 0.55 | 0.55 | 50 | 1005.4 |
| 20260504233500 | 76 | 10 | 9.6 | 17.4 | 0.00 | 0.55 | 0.55 | 49 | 1005.6 |
| 20260504233001 | 76 | 28 | 10.4 | 18.2 | 0.00 | 0.55 | 0.55 | 48 | 1005.6 |
| 20260504232500 | 76 | 48 | 7.8 | 18.2 | 0.00 | 0.55 | 0.55 | 47 | 1005.7 |
| 20260504232000 | 76 | 32 | 18.2 | 18.2 | 0.00 | 0.55 | 0.55 | 46 | 1005.6 |
| 20260504231500 | 76 | 13 | 8.7 | 16.5 | 0.00 | 0.55 | 0.55 | 48 | 1005.9 |
| 20260504231000 | 77 | 35 | 10.4 | 16.5 | 0.00 | 0.55 | 0.55 | 47 | 1006.0 |
| 20260504230500 | 77 | 51 | 11.3 | 16.5 | 0.00 | 0.55 | 0.55 | 43 | 1006.0 |
| 20260504230000 | 77 | 54 | 10.4 | 14.8 | 0.00 | 0.55 | 0.55 | 48 | 1006.0 |
| 20260504225500 | 77 | 23 | 10.4 | 17.4 | 0.00 | 0.55 | 0.55 | 48 | 1006.1 |
| 20260504225000 | 77 | 25 | 10.4 | 17.4 | 0.00 | 0.55 | 0.55 | 46 | 1006.2 |
| 20260504224500 | 77 | 20 | 14.8 | 16.5 | 0.00 | 0.55 | 0.55 | 47 | 1006.1 |
| 20260504224000 | 77 | 46 | 9.6 | 13.9 | 0.00 | 0.55 | 0.55 | 45 | 1006.1 |
| 20260504223501 | 78 | 23 | 8.7 | 18.2 | 0.00 | 0.55 | 0.55 | 45 | 1006.3 |
| 20260504222954 | 77 | 51 | 10.4 | 18.2 | 0.00 | 0.55 | 0.55 | 45 | 1006.3 |
| 20260504222454 | 78 | 5 | 10.4 | 17.4 | 0.00 | 0.55 | 0.55 | 45 | 1006.2 |
| 20260504221954 | 78 | 13 | 11.3 | 17.4 | 0.00 | 0.55 | 0.55 | 44 | 1006.3 |
| 20260504221455 | 77 | 33 | 11.3 | 17.4 | 0.00 | 0.55 | 0.55 | 46 | 1006.4 |
| 20260504220955 | 77 | 39 | 13.9 | 16.5 | 0.00 | 0.55 | 0.55 | 46 | 1006.4 |
| 20260504220454 | 78 | 22 | 10.4 | 14.8 | 0.00 | 0.55 | 0.55 | 49 | 1006.5 |
| 20260504215954 | 78 | 47 | 7.0 | 16.5 | 0.00 | 0.55 | 0.55 | 50 | 1006.5 |
| 20260504215454 | 78 | 59 | 9.6 | 16.5 | 0.00 | 0.55 | 0.55 | 43 | 1006.5 |
| 20260504214954 | 78 | 20 | 7.8 | 19.1 | 0.00 | 0.55 | 0.55 | 48 | 1006.6 |
| 20260504214454 | 78 | 16 | 9.6 | 19.1 | 0.00 | 0.55 | 0.55 | 45 | 1006.6 |
| 20260504213954 | 78 | 28 | 9.6 | 17.4 | 0.00 | 0.55 | 0.55 | 48 | 1006.8 |
| 20260504213454 | 78 | 32 | 15.6 | 17.4 | 0.00 | 0.55 | 0.55 | 50 | 1006.7 |
| 20260504212954 | 78 | 52 | 8.7 | 16.5 | 0.00 | 0.55 | 0.55 | 45 | 1006.8 |
| 20260504212454 | 78 | 50 | 10.4 | 20.9 | 0.00 | 0.55 | 0.55 | 45 | 1006.8 |
| 20260504211954 | 78 | 59 | 12.2 | 20.9 | 0.00 | 0.55 | 0.55 | 39 | 1006.9 |
| 20260504211454 | 78 | 54 | 13.9 | 17.4 | 0.00 | 0.55 | 0.55 | 46 | 1006.9 |
| 20260504210954 | 78 | 45 | 16.5 | 17.4 | 0.00 | 0.55 | 0.55 | 43 | 1007.0 |
| 20260504210455 | 77 | 27 | 10.4 | 16.5 | 0.00 | 0.55 | 0.55 | 46 | 1007.1 |
| 20260504205954 | 78 | 32 | 10.4 | 17.4 | 0.00 | 0.55 | 0.55 | 45 | 1007.3 |
| 20260504205454 | 78 | 51 | 10.4 | 18.2 | 0.00 | 0.55 | 0.55 | 44 | 1007.2 |
| 20260504204954 | 78 | 25 | 8.7 | 18.2 | 0.00 | 0.55 | 0.55 | 45 | 1007.3 |
| 20260504204455 | 78 | 11 | 9.6 | 16.5 | 0.00 | 0.55 | 0.55 | 46 | 1007.4 |
| 20260504203954 | 78 | 36 | 11.3 | 18.2 | 0.00 | 0.55 | 0.55 | 43 | 1007.5 |
| 20260504203454 | 78 | 21 | 7.0 | 18.2 | 0.00 | 0.55 | 0.55 | 46 | 1007.6 |
| 20260504202954 | 78 | 23 | 9.6 | 18.2 | 0.00 | 0.55 | 0.55 | 43 | 1007.7 |
| 20260504202454 | 78 | 35 | 13.0 | 18.2 | 0.00 | 0.55 | 0.55 | 46 | 1007.9 |
| 20260504201954 | 79 | 70 | 13.0 | 17.4 | 0.00 | 0.55 | 0.55 | 40 | 1007.9 |
| 20260504201454 | 78 | 57 | 11.3 | 18.2 | 0.00 | 0.55 | 0.55 | 42 | 1008.0 |
| 20260504200954 | 78 | 47 | 13.9 | 18.2 | 0.00 | 0.55 | 0.55 | 43 | 1008.0 |
| 20260504200454 | 78 | 42 | 18.2 | 21.7 | 0.00 | 0.55 | 0.55 | 48 | 1008.1 |
| 20260504195954 | 78 | 59 | 10.4 | 22.6 | 0.00 | 0.55 | 0.55 | 42 | 1008.1 |
| 20260504195454 | 78 | 39 | 9.6 | 22.6 | 0.00 | 0.55 | 0.55 | 46 | 1008.1 |
| 20260504194954 | 78 | 16 | 13.9 | 20.0 | 0.00 | 0.55 | 0.55 | 46 | 1008.3 |
| 20260504194455 | 78 | 42 | 11.3 | 20.0 | 0.00 | 0.55 | 0.55 | 48 | 1008.3 |
| 20260504193954 | 78 | 33 | 8.7 | 21.7 | 0.00 | 0.55 | 0.55 | 42 | 1008.4 |
| 20260504193454 | 78 | 35 | 13.0 | 21.7 | 0.00 | 0.55 | 0.55 | 44 | 1008.5 |
| 20260504192954 | 78 | 21 | 14.8 | 17.4 | 0.00 | 0.55 | 0.55 | 45 | 1008.6 |
| 20260504192454 | 78 | 73 | 7.8 | 20.0 | 0.00 | 0.55 | 0.55 | 41 | 1008.6 |
| 20260504191954 | 78 | 45 | 11.3 | 20.0 | 0.00 | 0.55 | 0.55 | 43 | 1008.7 |
| 20260504191454 | 78 | 21 | 9.6 | 15.6 | 0.00 | 0.55 | 0.55 | 44 | 1008.8 |
| 20260504190954 | 78 | 38 | 8.7 | 19.1 | 0.00 | 0.55 | 0.55 | 46 | 1008.9 |
| 20260504190454 | 78 | 57 | 9.6 | 19.1 | 0.00 | 0.55 | 0.55 | 42 | 1008.9 |
| 20260504185955 | 78 | 55 | 9.6 | 17.4 | 0.00 | 0.55 | 0.55 | 44 | 1008.9 |
| 20260504185454 | 77 | 49 | 10.4 | 20.9 | 0.00 | 0.55 | 0.55 | 48 | 1008.9 |
| 20260504184954 | 77 | 46 | 10.4 | 20.9 | 0.00 | 0.55 | 0.55 | 49 | 1009.1 |
| 20260504184006 | 77 | 47 | 11.3 | 17.4 | 0.00 | 0.55 | 0.55 | 41 | 1009.2 |
| 20260504183500 | 77 | 80 | 6.1 | 18.2 | 0.00 | 0.55 | 0.55 | 45 | 1009.2 |
| 20260504183000 | 77 | 41 | 14.8 | 18.2 | 0.00 | 0.55 | 0.55 | 46 | 1009.3 |
| 20260504182500 | 76 | 42 | 11.3 | 18.2 | 0.54 | 0.55 | 0.55 | 46 | 1009.4 |
| 20260504182000 | 76 | 27 | 14.8 | 16.5 | 0.54 | 0.55 | 0.55 | 50 | 1009.3 |
| 20260504181500 | 77 | 36 | 13.0 | 17.4 | 0.55 | 0.55 | 0.55 | 52 | 1009.5 |
| 20260504181000 | 77 | 44 | 12.2 | 20.0 | 0.55 | 0.55 | 0.55 | 44 | 1009.5 |
| 20260504180500 | 76 | 43 | 15.6 | 20.0 | 0.55 | 0.55 | 0.55 | 47 | 1009.5 |
| 20260504180000 | 78 | 47 | 7.8 | 15.6 | 0.55 | 0.00 | 0.55 | 43 | 1009.6 |
| 20260504175501 | 77 | 63 | 10.4 | 20.9 | 0.55 | 0.00 | 0.55 | 42 | 1009.6 |
| 20260504174954 | 76 | 59 | 11.3 | 20.9 | 0.55 | 0.00 | 0.55 | 41 | 1009.7 |
| 20260504174455 | 77 | 39 | 10.4 | 20.0 | 0.55 | 0.00 | 0.55 | 44 | 1009.9 |
| 20260504173507 | 76 | 55 | 13.9 | 17.4 | 0.55 | 0.00 | 0.55 | 44 | 1010.0 |
| 20260504173006 | 77 | 93 | 7.8 | 20.9 | 0.54 | 0.00 | 0.55 | 47 | 1010.1 |
| 20260504172500 | 75 | 236 | 12.2 | 20.9 | 0.00 | 0.00 | 0.02 | 51 | 1010.0 |
| 20260504172000 | 75 | 235 | 14.8 | 15.6 | 0.00 | 0.00 | 0.00 | 49 | 1010.1 |
| 20260504171500 | 76 | 311 | 11.3 | 20.9 | 0.00 | 0.00 | 0.00 | 48 | 1010.1 |
| 20260504171000 | 75 | 255 | 7.8 | 20.9 | 0.00 | 0.00 | 0.00 | 53 | 1010.3 |
| 20260504170500 | 75 | 259 | 11.3 | 20.9 | 0.00 | 0.00 | 0.00 | 47 | 1010.3 |
| 20260504151000 | 70 | 236 | 11.3 | 13.9 | 0.00 | 0.00 | 0.00 | 60 | 1010.7 |
| 20260504150500 | 70 | 253 | 6.1 | 11.3 | 0.00 | 0.00 | 0.00 | 63 | 1010.7 |
| 20260504141000 | 67 | 260 | 7.0 | 11.3 | 0.00 | 0.00 | 0.00 | 63 | 1010.8 |
| 20260504140500 | 67 | 238 | 7.0 | 11.3 | 0.00 | 0.00 | 0.00 | 65 | 1010.9 |
| 20260504130501 | 63 | 264 | 7.0 | 11.3 | 0.00 | 0.00 | 0.00 | 70 | 1010.4 |
| 20260504110500 | 58 | 221 | 5.2 | 7.0 | 0.00 | 0.00 | 0.00 | 78 | 1009.4 |
| 20260504100500 | 60 | 231 | 4.3 | 6.1 | 0.00 | 0.00 | 0.00 | 76 | 1009.4 |
| 20260504082000 | 62 | 237 | 4.3 | 7.0 | 0.00 | 0.00 | 0.00 | 72 | 1009.8 |
| 20260504081500 | 61 | 252 | 3.5 | 6.1 | 0.00 | 0.00 | 0.00 | 73 | 1009.8 |
| 20260504081000 | 61 | 238 | 3.5 | 6.1 | 0.00 | 0.00 | 0.00 | 73 | 1009.8 |
| 20260504080500 | 61 | 238 | 3.5 | 5.2 | 0.00 | 0.00 | 0.00 | 74 | 1009.8 |
| 20260504050500 | 62 | 252 | 3.5 | 5.2 | 0.00 | 0.00 | 0.00 | 75 | 1010.8 |
| 20260504050000 | 62 | 261 | 3.5 | 6.1 | 0.00 | 0.00 | 0.00 | 74 | 1010.8 |
| 20260504045500 | 63 | 257 | 2.6 | 6.1 | 0.00 | 0.00 | 0.00 | 72 | 1010.8 |
| 20260504045000 | 64 | 234 | 3.5 | 7.0 | 0.00 | 0.00 | 0.00 | 68 | 1010.8 |
| 20260504044500 | 64 | 253 | 1.7 | 7.0 | 0.00 | 0.00 | 0.00 | 68 | 1010.9 |
| 20260504044000 | 64 | 255 | 3.5 | 7.8 | 0.00 | 0.00 | 0.00 | 68 | 1011.0 |
| 20260504043500 | 65 | 224 | 4.3 | 7.8 | 0.00 | 0.00 | 0.00 | 66 | 1011.0 |
| 20260504043000 | 64 | 223 | 4.3 | 7.0 | 0.00 | 0.00 | 0.00 | 67 | 1011.0 |
| 20260504042500 | 64 | 242 | 3.5 | 7.0 | 0.00 | 0.00 | 0.00 | 68 | 1011.1 |
| 20260504042000 | 64 | 237 | 4.3 | 6.1 | 0.00 | 0.00 | 0.00 | 67 | 1011.1 |
| 20260504041500 | 64 | 228 | 5.2 | 7.0 | 0.00 | 0.00 | 0.00 | 70 | 1011.1 |
| 20260504041000 | 65 | 239 | 2.6 | 7.0 | 0.00 | 0.00 | 0.00 | 67 | 1011.2 |
| 20260504040500 | 65 | 225 | 4.3 | 6.1 | 0.00 | 0.00 | 0.00 | 64 | 1011.2 |
| 20260504040000 | 65 | 229 | 6.1 | 6.1 | 0.00 | 0.00 | 0.00 | 65 | 1011.2 |
| 20260504035500 | 64 | 246 | 3.5 | 5.2 | 0.00 | 0.00 | 0.00 | 67 | 1011.2 |
| 20260504035000 | 64 | 236 | 3.5 | 4.3 | 0.00 | 0.00 | 0.00 | 67 | 1011.2 |
| 20260504034500 | 64 | 238 | 2.6 | 3.5 | 0.00 | 0.00 | 0.00 | 71 | 1011.2 |
| 20260504034000 | 65 | 229 | 1.7 | 3.5 | 0.00 | 0.00 | 0.00 | 67 | 1011.2 |
| 20260504033500 | 65 | 211 | 1.7 | 4.3 | 0.00 | 0.00 | 0.00 | 67 | 1011.2 |
| 20260504033000 | 65 | 219 | 3.5 | 4.3 | 0.00 | 0.00 | 0.00 | 68 | 1011.2 |
| 20260504032500 | 64 | 238 | 3.5 | 4.3 | 0.00 | 0.00 | 0.00 | 72 | 1011.2 |
| 20260504032000 | 64 | 249 | 2.6 | 3.5 | 0.00 | 0.00 | 0.00 | 73 | 1011.2 |
| 20260504031500 | 65 | 262 | 1.7 | 3.5 | 0.00 | 0.00 | 0.00 | 71 | 1011.2 |
| 20260504031000 | 65 | 233 | 1.7 | 3.5 | 0.00 | 0.00 | 0.00 | 69 | 1011.2 |
| 20260504030500 | 64 | 237 | 1.7 | 2.6 | 0.00 | 0.00 | 0.00 | 72 | 1011.2 |
| 20260504030000 | 66 | 237 | 0.9 | 2.6 | 0.00 | 0.00 | 0.00 | 69 | 1011.2 |
| 20260504025500 | 66 | 210 | 1.7 | 2.6 | 0.00 | 0.00 | 0.00 | 65 | 1011.1 |
| 20260504025000 | 65 | 191 | 0.9 | 2.6 | 0.00 | 0.00 | 0.00 | 67 | 1011.1 |
| 20260504024500 | 65 | 192 | 0.9 | 1.7 | 0.00 | 0.00 | 0.00 | 69 | 1011.1 |
| 20260504024000 | 65 | 175 | 1.7 | 1.7 | 0.00 | 0.00 | 0.00 | 69 | 1011.2 |
| 20260504023500 | 65 | 199 | 0.0 | 1.7 | 0.00 | 0.00 | 0.00 | 71 | 1011.1 |
| 20260504023000 | 65 | 242 | 1.7 | 1.7 | 0.00 | 0.00 | 0.00 | 73 | 1011.2 |
| 20260504022500 | 65 | 249 | 1.7 | 1.7 | 0.00 | 0.00 | 0.00 | 72 | 1011.1 |
| 20260504022000 | 65 | 285 | 0.0 | 0.9 | 0.00 | 0.00 | 0.00 | 72 | 1011.1 |
| 20260504021500 | 65 | 236 | 0.9 | 0.9 | 0.00 | 0.00 | 0.00 | 71 | 1011.1 |
| 20260504021000 | 64 | 260 | 0.9 | 1.7 | 0.00 | 0.00 | 0.00 | 73 | 1011.1 |
| 20260504020500 | 65 | 256 | 0.9 | 1.7 | 0.00 | 0.00 | 0.00 | 74 | 1011.1 |
| 20260504020000 | 65 | 164 | 0.9 | 1.7 | 0.00 | 0.00 | 0.00 | 71 | 1011.1 |
| 20260504015500 | 66 | 185 | 0.9 | 0.9 | 0.00 | 0.00 | 0.00 | 70 | 1011.1 |
| 20260504015000 | 66 | 221 | 0.9 | 0.9 | 0.00 | 0.00 | 0.00 | 68 | 1011.1 |
| 20260504014500 | 66 | 243 | 0.9 | 0.9 | 0.00 | 0.00 | 0.00 | 70 | 1011.0 |
| 20260504014000 | 66 | 219 | 0.0 | 1.7 | 0.00 | 0.00 | 0.00 | 70 | 1011.1 |
| 20260504013500 | 66 | 218 | 0.9 | 1.7 | 0.00 | 0.00 | 0.00 | 68 | 1011.0 |
| 20260504013000 | 66 | 213 | 0.9 | 1.7 | 0.00 | 0.00 | 0.00 | 74 | 1011.0 |
| 20260504012500 | 67 | 245 | 1.7 | 1.7 | 0.00 | 0.00 | 0.00 | 72 | 1011.0 |
| 20260504012000 | 67 | 253 | 0.9 | 1.7 | 0.00 | 0.00 | 0.00 | 68 | 1011.0 |
| 20260504011500 | 67 | 187 | 1.7 | 2.6 | 0.00 | 0.00 | 0.00 | 67 | 1011.0 |
| 20260504011000 | 68 | 227 | 1.7 | 2.6 | 0.00 | 0.00 | 0.00 | 73 | 1011.1 |
| 20260504010500 | 68 | 217 | 1.7 | 2.6 | 0.00 | 0.00 | 0.00 | 74 | 1011.1 |
| 20260504010000 | 69 | 222 | 1.7 | 2.6 | 0.00 | 0.00 | 0.00 | 71 | 1011.1 |
| 20260504005501 | 71 | 238 | 2.6 | 2.6 | 0.00 | 0.00 | 0.00 | 59 | 1011.1 |
| 20260504005000 | 71 | 196 | 1.7 | 2.6 | 0.00 | 0.00 | 0.00 | 59 | 1011.1 |